THOR AGENA D R/B, 2825

Orbit data source: Space-Track

THOR AGENA D R/B, 2825 is space debris in LEO originally from a launch on Wed, 31 May 1967 UTC launched from the Air Force Western Test Range (AFWTR). Debris objects in space refer to the collection of defunct objects orbiting the Earth. Examples of debris include non-operational satellites, rocket bodies, and fragments generated from explosions, collisions, or faulty payload assembly.

Loading next visibility...
Identifier
2825, 1967-053B
Orbit
LEO
Country
Flag of USUS
Related business
Manufacturer
LMSC
Mission
Spacecraft
Bus & Motor
AGENA D, Unknown motor
Mass
600 kg wet, 600 kg dry
Launch date (UTC)
1967-05-31 (59 years ago)
Launch vehicle
Unknown
Launch site
Air Force Western Test Range (AFWTR)
Object type
Payload
Rocket body
Debris
Shape & HBR
Unknown
Radar Cross Section
Large (>1 m²)

Expand to show TLE details & history
Last TLE update: 13 hours ago

TLE from 13 hours ago
0 THOR AGENA D R/B
1  2825U 67053B   26126.57470469  .00000042  00000-0  67834-4 0  9995
2  2825  69.9702 162.8819 0009425 238.1053 121.9137 13.97721824 86281
Epoch: 2026-05-06T13:47Z
TLE epoch observation values (Epoch: 2026-05-06T13:47:34.485Z)
Latitude
-0°
Longitude
91.55498°
Altitude
907.639 km
Speed
7.397 km/s
True Right ascension
10h 51m 31s
True Declination
0° 00' 00"
Sunlit
Object was in daylight at epoch
Visualization orbit readout
Latitude
Unknown
Longitude
Unknown
Altitude
Unknown
Speed
Unknown
Apparent Right ascension
Unknown
Apparent Declination
Unknown
Sunlit
N/A
Visualization observer readout
Local Sidereal Time
10:43:14
Azimuth
Unknown
Elevation
Unknown
Doppler factor
Unknown
Orbital elements
Apogee altitude
906.599 km
Perigee altitude
892.88 km
Semi-major axis
7,277.876 km
Eccentricity
0.00094
Inclination
69.9702°
RAAN
162.8819°
Arg. of periapsis
238.1053°
True anomaly
122.00532°
Mean anomaly
121.9137°
Eccentric anomaly
121.95952°
Mean motion
3.49572 °/min
Orbital period
102.98 mins
BSTAR
0.000067834
Loading maneuver chart data...
Computing Atmospheric mass density...
Loading historical data...
Loading historical data...
Loading historical data...
Loading historical data...
Loading historical data...
Loading historical data...
Loading historical data...

Documentation

Showing up to 5 results
|